Centralia, IL

7:24 AM CST on December 16, 2017 (GMT -0600)
Centralia Municipal

Weather History for KENL - March, 2014

Change the Weather History Date:

Tuesday, March 11, 2014

  Actual Average (KSLO) Record (KSLO)
Temperature  
Mean Temperature 60 °F -  
Max Temperature 74 °F 54 °F 78 °F (1967)
Min Temperature 47 °F 33 °F 14 °F (1969)
Degree Days  
Heating Degree Days 4    
Growing Degree Days 10 (Base 50)    
Moisture  
Dew Point 45 °F    
Average Humidity 58    
Maximum Humidity 77    
Minimum Humidity 28    
Precipitation  
Precipitation 0.00 in - - ()
Sea Level Pressure  
Sea Level Pressure 29.62 in    
Wind  
Wind Speed 11 mph (South)    
Max Wind Speed 22 mph    
Max Gust Speed 26 mph    
Visibility 10 miles    
Events Rain    
Averages and records for this station are not official NWS values.
T = Trace of Precipitation, MM = Missing Value Source: NWS Daily Summary

Daily Weather History Graph

Daily Weather History Graph

Search for Another Location

Airport or City:

Trip Planner

Search our weather history database for the weather conditions in past years. The results will help you decide how hot, cold, wet, or windy it might be!

Date:

Astronomy

Mar. 11, 2014 Rise Set
Actual Time 7:13 AM CDT 6:59 PM CDT
Civil Twilight 6:47 AM CDT 7:26 PM CDT
Nautical Twilight 6:16 AM CDT 7:56 PM CDT
Astronomical Twilight 5:45 AM CDT 8:27 PM CDT
Moon 2:38 PM CDT (3/11) 4:04 AM CDT (3/11)
Length of Visible Light 12h 38m
Length of Day
11h 45m
Waxing Gibbous, 78% of the Moon is Illuminated
Mar 11
Waxing Gibbous
Mar 16
Full
Mar 23
Last Quarter
Mar 30
New
Apr 7
First Quarter

Hourly Weather History & Observations

Time (CDT) Temp. Dew Point Humidity Pressure Visibility Wind Dir Wind Speed Gust Speed Precip Events Conditions
12:15 AM 53.8 °F 45.5 °F 74% 29.73 in 10.0 mi SSW 15.0 mph - N/A   Clear
12:35 AM 53.1 °F 45.1 °F 74% 29.73 in 10.0 mi SSW 13.8 mph - N/A   Clear
12:55 AM 53.1 °F 45.0 °F 74% 29.72 in 10.0 mi SSW 12.7 mph - N/A   Clear
1:15 AM 52.3 °F 44.6 °F 75% 29.72 in 10.0 mi SSW 13.8 mph - N/A   Clear
1:35 AM 52.3 °F 44.2 °F 74% 29.72 in 10.0 mi SSW 12.7 mph - N/A   Clear
1:55 AM 51.6 °F 43.7 °F 74% 29.72 in 10.0 mi SSW 10.4 mph - N/A   Clear
2:15 AM 50.9 °F 43.2 °F 75% 29.72 in 10.0 mi SSW 9.2 mph - N/A   Clear
2:35 AM 50.5 °F 42.8 °F 75% 29.72 in 10.0 mi SSW 9.2 mph - N/A   Clear
2:55 AM 51.1 °F 43.0 °F 74% 29.72 in 10.0 mi SSW 10.4 mph - N/A   Clear
3:15 AM 50.9 °F 42.8 °F 74% 29.71 in 10.0 mi SSW 11.5 mph - N/A   Clear
3:35 AM 50.7 °F 42.3 °F 73% 29.70 in 10.0 mi SSW 10.4 mph - N/A   Clear
3:55 AM 50.5 °F 41.9 °F 72% 29.70 in 10.0 mi SSW 9.2 mph - N/A   Clear
4:15 AM 50.5 °F 41.9 °F 72% 29.70 in 10.0 mi SSW 10.4 mph - N/A   Clear
4:35 AM 50.4 °F 41.4 °F 71% 29.69 in 10.0 mi SSW 9.2 mph - N/A   Clear
4:55 AM 48.6 °F 41.0 °F 75% 29.69 in 10.0 mi South 9.2 mph - N/A   Clear
5:15 AM 47.5 °F 40.6 °F 77% 29.69 in 10.0 mi South 8.1 mph - N/A   Clear
5:35 AM 48.2 °F 40.8 °F 76% 29.69 in 10.0 mi South 10.4 mph - N/A   Clear
5:55 AM 48.7 °F 40.6 °F 74% 29.69 in 10.0 mi SSW 11.5 mph - N/A   Clear
6:15 AM 50.2 °F 40.1 °F 68% 29.69 in 10.0 mi SSW 9.2 mph - N/A   Clear
6:35 AM 50.0 °F 39.6 °F 67% 29.69 in 10.0 mi SSW 10.4 mph - N/A   Clear
6:55 AM 48.9 °F 39.6 °F 70% 29.69 in 10.0 mi South 8.1 mph - N/A   Clear
7:15 AM 49.3 °F 39.2 °F 68% 29.68 in 10.0 mi SSW 8.1 mph - N/A   Clear
7:35 AM 48.4 °F 39.2 °F 71% 29.69 in 10.0 mi South 4.6 mph - N/A   Clear
7:55 AM 48.4 °F 39.2 °F 71% 29.69 in 10.0 mi South 6.9 mph - N/A   Clear
8:15 AM 47.8 °F 39.2 °F 72% 29.70 in 10.0 mi South 5.8 mph - N/A   Clear
8:35 AM 48.9 °F 40.3 °F 72% 29.70 in 10.0 mi South 6.9 mph - N/A   Clear
8:55 AM 52.3 °F 40.6 °F 64% 29.70 in 10.0 mi South 8.1 mph - N/A   Clear
9:15 AM 53.6 °F 41.2 °F 63% 29.70 in 10.0 mi South 9.2 mph - N/A   Clear
9:35 AM 56.5 °F 41.0 °F 56% 29.70 in 10.0 mi SSW 9.2 mph - N/A   Clear
9:55 AM 57.6 °F 41.7 °F 56% 29.70 in 10.0 mi South 6.9 mph - N/A   Clear
10:15 AM 59.9 °F 41.0 °F 50% 29.69 in 10.0 mi South 6.9 mph - N/A   Clear
10:35 AM 61.5 °F 41.0 °F 47% 29.68 in 10.0 mi SW 9.2 mph - N/A   Clear
10:55 AM 62.8 °F 41.5 °F 46% 29.68 in 10.0 mi WSW 8.1 mph - N/A   Clear
11:15 AM 64.4 °F 42.6 °F 45% 29.67 in 10.0 mi SW 8.1 mph - N/A   Clear
11:35 AM 65.3 °F 43.7 °F 46% 29.67 in 10.0 mi SSW 8.1 mph - N/A   Clear
11:55 AM 67.1 °F 44.4 °F 44% 29.66 in 10.0 mi South 8.1 mph - N/A   Clear
12:15 PM 68.4 °F 44.2 °F 42% 29.66 in 10.0 mi South 9.2 mph - N/A   Clear
12:35 PM 69.8 °F 44.6 °F 40% 29.65 in 10.0 mi SSW 8.1 mph - N/A   Clear
12:55 PM 71.4 °F 44.8 °F 38% 29.65 in 10.0 mi SSW 9.2 mph - N/A   Clear
1:15 PM 72.5 °F 42.1 °F 33% 29.64 in 10.0 mi South 8.1 mph - N/A   Clear
1:35 PM 73.2 °F 42.8 °F 33% 29.62 in 10.0 mi South 9.2 mph - N/A   Clear
1:55 PM 73.2 °F 39.7 °F 30% 29.60 in 10.0 mi South 11.5 mph 19.6 mph N/A   Clear
2:15 PM 73.9 °F 38.7 °F 28% 29.59 in 10.0 mi SSE 13.8 mph - N/A   Clear
2:35 PM 73.6 °F 39.6 °F 29% 29.59 in 10.0 mi South 16.1 mph 20.7 mph N/A   Clear
2:55 PM 73.6 °F 41.4 °F 31% 29.58 in 10.0 mi South 18.4 mph 24.2 mph N/A   Clear
3:15 PM 74.1 °F 41.2 °F 31% 29.57 in 10.0 mi South 21.9 mph 26.5 mph N/A   Scattered Clouds
3:35 PM 73.8 °F 41.0 °F 31% 29.57 in 10.0 mi South 19.6 mph 25.3 mph N/A   Clear
3:55 PM 73.6 °F 41.0 °F 31% 29.56 in 10.0 mi South 18.4 mph 23.0 mph N/A   Clear
4:15 PM 73.4 °F 41.4 °F 31% 29.55 in 10.0 mi South 13.8 mph - N/A   Clear
4:35 PM 73.9 °F 41.2 °F 31% 29.54 in 10.0 mi South 13.8 mph - N/A   Clear
4:55 PM 73.0 °F 40.6 °F 31% 29.53 in 10.0 mi South 17.3 mph 23.0 mph N/A   Clear
5:15 PM 72.5 °F 41.2 °F 32% 29.53 in 10.0 mi South 18.4 mph 21.9 mph N/A   Clear
5:35 PM 71.6 °F 42.3 °F 35% 29.53 in 10.0 mi South 19.6 mph - N/A   Clear
5:55 PM 69.4 °F 44.6 °F 41% 29.53 in 10.0 mi South 13.8 mph - N/A   Clear
6:15 PM 68.7 °F 46.2 °F 44% 29.53 in 10.0 mi SSE 10.4 mph - N/A   Scattered Clouds
6:35 PM 67.1 °F 47.7 °F 50% 29.54 in 10.0 mi South 10.4 mph - N/A   Mostly Cloudy
6:55 PM 66.6 °F 49.1 °F 53% 29.53 in 10.0 mi South 10.4 mph - N/A   Scattered Clouds
7:15 PM 66.9 °F 52.0 °F 59% 29.54 in 10.0 mi South 11.5 mph 21.9 mph N/A   Scattered Clouds
7:35 PM 66.2 °F 52.7 °F 62% 29.54 in 10.0 mi South 10.4 mph - N/A   Scattered Clouds
7:55 PM 65.7 °F 53.1 °F 64% 29.54 in 10.0 mi SSE 9.2 mph 16.1 mph N/A   Clear
8:15 PM 64.6 °F 52.9 °F 66% 29.53 in 10.0 mi SSE 9.2 mph - N/A   Mostly Cloudy
8:35 PM 64.6 °F 53.2 °F 67% 29.52 in 10.0 mi SSE 10.4 mph - N/A   Overcast
8:55 PM 64.6 °F 54.1 °F 69% 29.52 in 10.0 mi South 11.5 mph 20.7 mph N/A Rain Light Rain
9:15 PM 64.4 °F 54.3 °F 70% 29.51 in 10.0 mi South 11.5 mph - N/A   Mostly Cloudy
9:35 PM 64.4 °F 54.3 °F 70% 29.50 in 10.0 mi South 13.8 mph 19.6 mph N/A   Mostly Cloudy
9:55 PM 63.7 °F 54.7 °F 72% 29.49 in 10.0 mi South 12.7 mph 18.4 mph N/A Rain Light Rain
10:15 PM 62.6 °F 54.5 °F 75% 29.49 in 10.0 mi South 9.2 mph - N/A   Mostly Cloudy
10:35 PM 62.1 °F 54.5 °F 76% 29.47 in 10.0 mi South 9.2 mph - N/A Rain Light Rain
10:55 PM 61.9 °F 54.3 °F 76% 29.46 in 10.0 mi South 10.4 mph - N/A   Mostly Cloudy
11:15 PM 62.2 °F 54.5 °F 76% 29.45 in 10.0 mi South 11.5 mph - N/A   Mostly Cloudy
11:35 PM 61.9 °F 54.5 °F 77% 29.44 in 10.0 mi South 11.5 mph - N/A   Overcast
11:55 PM 62.4 °F 54.5 °F 75% 29.44 in 10.0 mi South 11.5 mph 17.3 mph N/A   Overcast